Flag for U.S.A. Weather past 2 weeks in Abilene, Texas, U.S.A.

Now
76 °F

Sunny.


Feels Like: 77 °F
Forecast: 43 / 75 °F
Wind: 9 mph from Southwest

Location: Abilene Regional Airport

Current Time: Jan 27, 2015 at 5:34:38 PM

Latest Report: Jan 27, 2015 at 4:52 PM


Visibility: 10 mi

Pressure: 30.07 "Hg

Humidity: 24%

Dew point: 36 °F

Location of AbileneLocation

Historic Weather in Abilene — Graph

°F

Abilene temperature yesterday

Maximum temperature yesterday: 73 °F (at 3:52 PM)
Minimum temperature yesterday: 35 °F (at 6:52 AM)
Average temperature yesterday: 55 °F

Past Weeks' High & Low Weather Summary

 TemperatureHumidityPressure
High78 °F (Jan 27, 3:52 PM)100% (Jan 12, 4:52 PM)30.51 "Hg (Jan 12, 4:52 PM)
Low29 °F (Jan 13, 6:52 AM)14% (Jan 18, 2:52 PM)29.88 "Hg (Jan 20, 4:52 AM)
Average45 °F60%30.20 "Hg
* Reported Jan 12 3:52 PM — Jan 27 3:52 PM, Abilene, Weather by CustomWeather, © 2014

Note: Actual official high and low records may vary slightly from our data, if they occured in-between our weather recording intervals... More about our weather records

Advertising

Abilene weather history for previous 24 hours

 ConditionsComfort  
Time TempWeatherWind HumidityBarometerVisibility
3:52 PM
Jan 27
78 °FSunny.6 mph22%30.09 "Hg10 mi
2:52 PM77 °FSunny.5 mph24%30.11 "Hg10 mi
1:52 PM76 °FSunny.3 mph23%30.13 "Hg10 mi
12:52 PM73 °FSunny.No wind26%30.15 "Hg10 mi
11:52 AM70 °FSunny.No wind31%30.18 "Hg10 mi
10:52 AM64 °FSunny.3 mph37%30.20 "Hg10 mi
9:52 AM57 °FSunny.5 mph46%30.21 "Hg10 mi
8:52 AM47 °FSunny.No wind66%30.20 "Hg10 mi
7:52 AM40 °FSunny.5 mph77%30.20 "Hg10 mi
6:52 AM42 °FClear.No wind68%30.16 "Hg10 mi
5:52 AM44 °FClear.6 mph65%30.14 "Hg10 mi
4:52 AM47 °FClear.3 mph59%30.13 "Hg10 mi
3:52 AM45 °FClear.6 mph65%30.13 "Hg10 mi
2:52 AM45 °FClear.7 mph65%30.14 "Hg10 mi
1:52 AM45 °FClear.No wind68%30.14 "Hg10 mi
12:52 AM53 °FClear.6 mph47%30.14 "Hg10 mi
11:52 PM
Jan 26
54 °FClear.No wind45%30.14 "Hg10 mi
10:52 PM54 °FClear.3 mph47%30.14 "Hg10 mi
9:52 PM54 °FClear.7 mph49%30.14 "Hg10 mi
8:52 PM56 °FClear.7 mph46%30.15 "Hg10 mi
7:52 PM55 °FClear.7 mph49%30.16 "Hg10 mi
6:52 PM61 °FClear.7 mph35%30.15 "Hg10 mi
5:52 PM66 °FSunny.7 mph31%30.13 "Hg10 mi
Weather by CustomWeather, © 2014

See weather overviewHow to use our weather pages